Regional Weather Roundup
Issued by NWS

Home | Current Version | Previous Version | Graphics & Text | Print | Product List | Glossary On
Versions: 1 2 3 4 5 6 7 8 9 10 11 12 13 14 15 16 17 18 19 20 21 22 23 24 25 26 27 28 29 30 31 32 33 34 35 36 37 38 39 40 41 42 43 44 45 46 47 48 49 50
192
ASUS43 KBIS 200510
RWRND

NORTH DAKOTA REGIONAL WEATHER ROUNDUP
NATIONAL WEATHER SERVICE BISMARCK ND
1100 PM CST SUN FEB 19 2017

NOTE: "FAIR" INDICATES FEW OR NO CLOUDS BELOW 12,000 FEET WITH NO
SIGNIFICANT WEATHER AND/OR OBSTRUCTIONS TO VISIBILITY.


NDZ001>003-009>011-017-200600-
NORTHWEST NORTH DAKOTA

CITY           SKY/WX    TMP DP  RH WIND       PRES   REMARKS
WILLISTON      CLOUDY    33  30  88 CALM      29.59R FOG
MINOT          FAIR      32  31  96 CALM      29.53R FOG
MINOT AFB      FOG       32  32 100 NW6       29.52S VSB 1/2
$$

NDZ018>021-031>035-040>046-200600-
SOUTHWEST NORTH DAKOTA

CITY           SKY/WX    TMP DP  RH WIND       PRES   REMARKS
BISMARCK       FAIR      38  35  89 CALM      29.53R
DICKINSON      CLOUDY    39  35  86 N7        29.51S
GARRISON         N/A     33  31  92 N6        29.53R
HETTINGER ARPT CLOUDY    38  33  82 NW7       29.53R
$$

NDZ004>008-012>016-024-026-027-054-200600-
NORTHEAST NORTH DAKOTA

CITY           SKY/WX    TMP DP  RH WIND       PRES   REMARKS
GRAND FORKS    MOCLDY    40  34  79 S14       29.60F
GRND FRKS AFB  CLOUDY    39  37  94 S9        29.60F
DEVILS LAKE    FOG       37  37 100 SE8       29.55S VSB 1/4
$$

NDZ022-023-025-028>030-036>039-047>053-200600-
SOUTHEAST NORTH DAKOTA

CITY           SKY/WX    TMP DP  RH WIND       PRES   REMARKS
FARGO          CLOUDY    52  48  86 S21G32    29.62S
JAMESTOWN      FAIR      40  40 100 SE10      29.55S FOG
$$





USA.gov is the U.S. government's official web portal to all federal, state and local government web resources and services.